Probability
0 0 0 0 0 0 1 2 3 3 3 3 3 3 2 1 1 3 5 6 6 5 5 6 6 4 1 0 0 0 0 0 0 0 0 0 0 0 0 0 0 0 0
0 0 0 0 0 0 0 1 2 3 3 3 3 3 2 1 1 2 4 5 5 4 4 5 5 4 1 0 0 0 0 0 0 0 0 0 0 0 0 0 0 0 0
0 0 0 0 0 0 0 0 1 3 3 3 3 3 2 1 0 1 1 3 3 3 3 3 3 3 1 0 0 0 0 0 0 0 0 0 0 0 0 0 0 0 0
0 0 0 0 0 0 0 0 1 2 3 3 3 3 2 1 0 0 0 1 1 1 1 1 2 1 0 0 0 0 0 0 0 0 0 0 0 0 0 0 0 0 0
0 0 0 0 0 0 0 0 1 2 3 3 3 3 1 0 0 0 0 0 0 0 0 0 1 1 0 0 0 0 0 0 0 0 0 0 0 0 0 0 0 0 0
0 0 0 0 0 0 0 0 0 1 3 3 3 2 1 0 0 0 0 0 0 0 0 0 0 0 0 0 0 0 0 0 0 0 0 0 0 0 0 0 0 0 0
0 0 0 0 0 0 0 0 0 1 2 3 2 1 1 0 0 0 0 0 0 0 0 0 0 0 0 0 0 0 0 0 0 0 0 0 0 0 0 0 0 0 0
0 0 0 0 0 0 0 0 0 1 2 3 1 1 0 0 0 0 0 0 0 0 0 0 0 0 0 0 0 0 0 0 0 0 0 0 0 0 0 0 0 0 0
0 0 0 0 0 0 0 0 0 1 2 3 2 1 0 0 0 0 0 0 0 0 0 0 0 0 0 0 0 0 0 0 0 0 0 0 0 0 0 0 0 0 0
0 0 0 0 0 0 0 0 0 1 2 3 3 2 1 0 0 0 0 0 0 0 0 0 0 0 0 0 0 0 0 0 0 0 0 0 0 0 0 0 0 0 0
0 0 0 0 0 0 0 0 0 0 1 3 3 3 1 0 0 0 0 0 0 0 0 0 0 0 0 0 0 0 0 0 0 0 0 0 0 0 0 0 0 0 0
0 0 0 0 0 0 0 0 0 0 1 2 3 3 2 1 0 0 0 0 0 0 0 0 0 0 0 0 0 0 0 0 0 0 0 0 0 0 0 0 0 0 0
0 0 0 0 0 0 0 0 0 0 0 2 3 3 2 1 0 0 0 0 0 0 0 0 0 0 0 0 0 0 0 0 0 0 0 0 0 0 0 0 0 0 0
0 0 0 0 0 0 0 0 0 0 0 1 2 2 2 1 0 0 0 0 0 0 0 0 0 0 0 0 0 0 0 0 0 0 0 0 0 0 0 0 0 0 0
0 0 0 0 0 0 0 0 0 0 0 1 1 1 1 0 0 0 0 0 0 0 0 0 0 0 0 0 0 0 0 0 0 0 0 0 0 0 0 0 0 0 0
0 0 0 0 0 0 0 0 0 0 0 0 1 0 0 0 0 0 0 0 0 0 0 0 0 0 0 0 0 0 0 0 0 0 0 0 0 0 0 0 0 0 0
0 0 0 0 0 0 0 0 0 0 0 0 0 0 0 0 0 0 0 0 0 0 0 0 0 0 0 0 0 0 0 0 0 0 0 0 0 0 0 0 0 0 0
0 0 0 0 0 0 0 0 0 0 0 0 0 0 0 0 0 0 0 0 0 0 0 0 0 0 0 0 0 0 0 0 0 0 0 0 0 0 0 0 0 0 0
0 0 0 0 0 0 0 0 0 0 0 0 0 0 0 0 0 0 0 0 0 0 0 0 0 0 0 0 0 0 0 0 0 0 0 0 0 0 0 0 0 0 0
0 0 0 0 0 0 0 0 0 0 0 0 0 0 0 0 0 0 0 0 0 0 0 0 0 0 0 0 0 0 0 0 0 0 0 0 0 0 0 0 0 0 0
0 0 0 0 0 0 0 0 0 0 0 0 0 0 0 0 0 0 0 0 0 0 0 0 0 0 0 0 0 0 0 0 0 0 0 0 0 0 0 0 0 0 0
0 0 0 0 0 0 0 0 0 0 0 0 0 0 0 0 0 0 0 0 0 0 0 0 0 0 0 0 0 0 0 0 0 0 0 0 0 0 0 0 0 0 0
0 0 0 0 0 0 0 0 0 0 0 0 0 0 0 0 0 0 0 0 0 0 0 0 0 0 0 0 0 0 0 0 0 0 0 0 0 0 0 0 0 0 0
0 0 0 0 0 0 0 0 0 0 0 0 0 0 0 0 0 0 0 0 0 0 0 0 0 0 0 0 0 0 0 0 0 0 0 0 0 0 0 0 0 0 0
0 0 0 0 0 0 0 0 0 0 0 0 0 0 0 0 0 0 0 0 0 0 0 0 0 0 0 0 0 0 0 0 0 0 0 0 0 0 0 0 0 0 0
0 0 0 0 0 0 0 0 0 0 0 0 0 0 0 0 0 0 0 0 0 0 0 0 0 0 0 0 0 0 0 0 0 0 0 0 0 0 0 0 0 0 0
Wind_Speed
4 4 5 5 6 6 7 7 7 7 6 5 5 4 4 3 3 3 4 5 5 5 4 4 2 1 1 1 2 1 2 1 1 1 2 3 3 2 1 1 0 0 1
3 4 4 5 6 6 7 7 7 6 6 5 4 3 3 3 3 3 4 5 5 4 4 4 2 1 1 1 1 1 1 2 1 1 1 1 2 2 2 1 1 1 0
2 3 5 5 5 6 6 6 6 6 6 6 4 4 3 3 3 5 4 5 5 5 4 4 3 2 1 1 1 1 1 2 2 1 1 1 2 2 2 2 2 1 1
2 3 4 5 5 5 5 6 6 6 6 6 5 5 4 4 5 4 4 5 5 5 5 5 4 2 2 2 2 1 1 2 2 3 2 2 1 1 2 2 2 2 2
2 3 3 4 4 5 5 5 6 6 6 6 6 5 4 4 4 5 5 5 4 5 5 5 4 3 2 2 2 2 2 2 3 3 2 3 3 3 2 3 3 2 2
2 2 3 3 4 4 4 4 5 6 6 6 6 6 6 6 6 6 6 5 4 4 5 6 5 4 2 3 3 3 3 3 3 3 3 2 2 3 2 3 3 3 3
1 2 3 3 4 4 4 4 5 5 6 6 6 6 6 6 5 6 5 6 4 4 5 5 5 4 3 3 3 3 3 4 4 4 3 3 3 3 3 2 3 3 3
2 2 2 2 3 4 4 4 5 5 5 6 6 5 6 4 4 5 5 6 4 4 6 7 6 5 4 4 3 3 4 4 4 4 4 3 3 3 3 3 2 3 3
2 2 2 2 3 3 4 4 5 5 5 5 6 5 5 5 5 5 5 5 5 6 6 7 7 5 5 4 4 4 4 4 4 4 4 3 3 3 3 3 3 3 4
2 2 2 2 3 3 3 4 4 5 5 5 5 6 5 5 6 5 6 6 6 6 7 6 7 6 5 4 4 4 4 4 4 4 4 4 3 3 3 3 3 3 3
2 2 3 2 3 3 3 4 4 5 5 5 5 5 5 6 6 5 6 6 6 7 7 7 6 6 5 4 4 4 5 5 5 4 5 5 4 3 3 3 3 3 3
2 2 3 3 3 3 3 4 4 5 5 5 5 6 6 6 6 6 6 7 7 7 7 7 7 6 6 5 5 5 5 6 6 6 6 6 4 5 4 3 4 4 3
2 2 3 3 4 4 4 4 4 5 5 5 5 6 6 6 6 7 7 7 7 7 7 7 7 6 6 6 6 6 6 7 7 6 6 6 6 6 4 4 4 4 4
2 3 3 3 4 4 5 5 5 5 5 5 5 6 6 6 7 7 7 7 7 7 7 7 7 6 6 6 6 6 6 6 7 6 6 6 7 7 6 5 5 4 4
3 3 4 4 5 5 5 5 6 6 6 5 5 6 6 7 7 6 7 7 7 8 8 7 6 6 6 6 7 5 6 6 6 6 6 7 8 9 8 6 5 5 4
4 4 5 5 6 6 6 6 7 7 6 5 5 6 6 6 6 7 7 7 8 8 7 6 6 7 7 11 13 9 5 5 6 6 6 6 7 9 10 10 10 9 7
5 5 5 6 6 6 6 7 7 7 6 6 6 6 7 7 7 8 8 7 7 7 7 6 6 7 8 13 13 11 7 5 5 6 6 6 6 8 6 8 9 9 10
5 5 6 6 6 5 6 6 7 6 6 6 7 7 7 8 8 7 7 7 6 6 6 7 7 7 9 14 13 12 7 5 5 6 6 7 6 7 7 7 7 7 7
4 4 5 5 6 6 6 6 7 7 7 7 7 7 7 8 8 8 7 6 6 7 7 7 7 7 8 13 14 12 5 4 5 6 6 7 7 9 10 7 7 6 6
4 4 5 5 6 6 6 6 7 7 8 8 8 8 7 8 8 8 7 6 6 7 7 8 6 7 7 12 14 13 4 4 5 5 5 8 9 10 10 7 6 7 6
4 5 5 5 5 6 6 6 7 7 8 9 8 8 8 7 8 7 7 6 7 7 7 8 7 6 8 11 14 13 5 5 5 5 4 5 9 10 10 9 6 8 7
5 5 5 6 6 5 5 7 8 8 8 9 9 9 8 7 7 7 7 7 6 7 7 7 7 5 6 9 11 13 11 9 6 5 4 5 9 10 10 7 7 9 7
5 4 5 6 6 6 5 7 8 8 8 9 8 8 9 7 7 7 7 6 5 5 6 6 6 6 6 7 12 13 13 11 6 5 7 8 10 9 7 7 7 5 4
5 4 5 6 7 6 6 6 8 8 8 9 9 8 8 7 7 6 6 6 5 5 6 6 6 6 6 6 6 6 6 8 6 5 6 8 8 7 7 5 4 3 3
5 5 5 6 7 7 7 8 8 8 8 9 8 8 7 7 7 6 6 7 5 7 7 6 6 6 6 8 12 9 6 5 5 4 3 3 3 3 3 2 2 2 2
5 5 6 7 7 7 7 7 7 7 8 9 8 7 6 6 6 6 7 10 11 13 14 13 11 9 11 14 14 13 12 10 8 5 3 3 3 3 3 2 2 2 2
Wind_Direction
51 44 32 22 14 10 8 8 7 360 358 354 349 345 341 335 336 340 343 340 333 327 332 325 312 325 319 324 340 355 340 328 332 322 315 302 284 263 259 255 244 242 226
41 33 30 22 15 9 3 5 5 358 356 353 341 327 323 323 327 330 335 338 330 324 327 324 304 298 296 319 336 351 331 305 322 314 300 300 306 308 292 281 258 248 247
37 23 20 18 14 9 1 360 359 356 355 350 340 339 340 331 339 338 332 329 327 320 315 313 300 270 264 260 271 264 319 276 284 274 232 224 243 303 276 261 250 246 265
49 28 13 8 9 7 1 357 356 356 354 350 347 347 345 336 327 322 319 318 319 317 310 311 303 273 261 256 254 277 283 242 262 278 274 268 247 235 281 291 278 263 254
62 38 17 8 5 8 2 355 355 354 353 352 348 343 335 325 319 323 320 320 312 313 315 311 301 280 262 253 253 258 260 254 258 261 276 285 283 247 241 265 273 284 274
54 34 24 15 2 1 360 354 355 352 352 351 349 345 336 334 331 330 326 326 319 309 313 319 305 286 271 256 246 241 245 254 265 267 262 258 253 261 256 254 252 263 276
57 19 5 1 355 351 348 348 352 348 346 344 344 341 335 331 328 327 325 324 321 316 308 312 297 287 277 267 256 243 241 246 252 256 263 262 257 260 269 259 262 268 271
38 8 349 347 343 343 343 343 344 339 338 337 334 334 334 325 321 323 320 317 314 310 312 313 302 293 279 274 260 249 247 247 246 257 265 271 267 263 257 248 250 267 272
359 349 340 339 334 336 337 334 336 332 330 328 327 327 329 327 323 320 315 310 306 308 311 311 299 292 286 275 266 252 249 253 252 250 257 266 270 268 269 255 232 230 254
347 343 333 332 329 329 329 333 329 324 321 322 322 324 320 318 315 314 313 309 307 307 303 303 299 292 284 278 269 264 248 248 253 253 252 260 266 265 264 260 257 248 242
326 330 327 327 327 331 335 334 327 322 319 319 317 317 315 315 315 313 313 309 306 305 304 298 294 293 289 279 269 266 258 247 250 254 251 256 260 259 260 256 254 256 247
317 325 326 326 326 327 330 329 328 323 318 316 314 314 315 316 315 314 313 310 306 306 305 298 294 289 290 285 275 268 265 251 244 244 245 249 250 249 251 250 250 253 250
325 327 327 325 325 326 327 325 326 324 318 312 312 311 312 314 314 312 312 311 308 308 306 304 295 290 289 286 280 270 259 256 248 242 240 242 240 244 244 248 248 251 255
316 321 322 321 324 326 325 324 323 322 318 311 308 308 309 309 308 308 311 311 310 306 303 302 299 294 291 288 281 276 266 260 255 247 242 240 236 238 237 240 242 245 249
320 321 323 323 324 326 325 325 321 320 317 306 304 303 306 305 306 310 311 310 309 305 300 300 303 299 293 287 283 277 274 265 260 251 246 243 241 243 241 239 234 232 235
321 328 328 326 324 324 326 326 323 320 318 311 304 303 305 305 307 307 307 307 306 303 301 303 303 301 299 300 298 291 281 276 269 264 256 252 247 245 247 245 243 235 231
323 325 324 321 320 323 324 321 318 317 319 315 313 312 309 308 308 308 309 305 303 303 304 303 301 298 301 303 301 295 291 276 268 264 259 257 253 252 241 244 247 244 243
322 323 323 321 321 323 324 321 319 318 316 313 311 312 314 313 312 307 304 302 301 301 301 301 300 298 300 306 308 301 293 280 276 271 262 253 247 245 243 235 235 237 240
321 319 321 319 319 322 324 324 321 321 319 316 315 316 316 313 312 307 304 302 301 299 298 300 299 299 301 305 307 301 288 281 280 277 272 264 248 247 252 246 236 241 249
330 326 324 320 320 322 327 326 321 323 320 317 315 315 314 310 307 304 300 298 298 297 299 297 296 297 300 304 306 303 288 280 280 278 275 275 270 257 251 242 236 240 243
327 328 324 321 320 323 328 322 319 318 315 316 315 313 310 305 301 301 302 301 299 300 300 298 298 298 301 306 306 304 290 278 278 277 278 275 278 271 260 257 245 246 248
324 327 325 321 321 324 326 320 318 317 318 317 315 314 313 310 310 308 308 307 303 302 301 301 303 302 302 305 304 303 297 292 281 275 275 280 283 279 270 262 261 260 257
319 321 320 319 322 326 327 319 317 320 320 318 314 313 313 311 308 307 308 307 306 303 302 303 305 308 308 305 306 306 303 296 288 280 279 285 286 282 273 266 269 260 240
316 321 322 319 319 323 325 318 319 322 322 318 316 316 317 312 310 307 305 303 303 301 301 303 304 305 307 308 308 302 298 296 292 289 285 286 286 279 275 275 269 252 234
321 322 319 314 313 320 321 321 323 325 322 317 316 317 316 314 314 311 306 303 293 298 302 302 301 303 305 308 312 313 307 300 293 299 288 277 279 269 265 256 250 242 230
316 317 315 313 314 317 316 317 320 321 319 317 318 316 314 313 312 311 312 311 308 310 309 309 308 304 305 311 314 315 313 312 306 299 283 278 276 274 273 272 265 250 230